Weather History for KISO - July, 2013

Change the Weather History Date:

Wednesday, July 17, 2013

  Actual Average Record
Temperature  
Mean Temperature 81 °F -  
Max Temperature 91 °F 87 °F 99 °F (1983)
Min Temperature 71 °F 70 °F 59 °F (2008)
Cooling Degree Days 16    
Growing Degree Days 31 (Base 50)    
Moisture  
Dew Point 71 °F    
Average Humidity 80    
Maximum Humidity 94    
Minimum Humidity 52    
Precipitation  
Precipitation 0.00 in - - ()
Sea Level Pressure  
Sea Level Pressure 30.18 in    
Wind  
Wind Speed 3 mph (NNW)    
Max Wind Speed 18 mph    
Max Gust Speed 24 mph    
Visibility 9 miles    
Events Rain    
Averages and records for this station are not official NWS values.
T = Trace of Precipitation, MM = Missing Value Source: NWS Daily Summary

Daily Weather History Graph

Daily Weather History Graph

Search for Another Location

Airport or City:

Trip Planner

Search our weather history database for the weather conditions in past years. The results will help you decide how hot, cold, wet, or windy it might be!

Date:

Astronomy

Jul. 17, 2013 Rise Set
Actual Time 6:08 AM EDT 8:24 PM EDT
Civil Twilight 5:39 AM EDT 8:53 PM EDT
Nautical Twilight 5:03 AM EDT 9:28 PM EDT
Astronomical Twilight 4:25 AM EDT 10:07 PM EDT
Moon 3:14 PM EDT (7/17) 1:09 AM EDT (7/17)
Length of Visible Light 15h 13m
Length of Day
14h 16m
Waxing Gibbous, 67% of the Moon is Illuminated
Jul 17
Waxing Gibbous
Jul 22
Full
Jul 29
Last Quarter
Aug 6
New
Aug 14
First Quarter

Hourly Weather History & Observations

Time (EDT) Temp. Heat Index Dew Point Humidity Pressure Visibility Wind Dir Wind Speed Gust Speed Precip Events Conditions
12:15 AM 80.1 °F 85.5 °F 76.1 °F 88% 30.19 in 10.0 mi SSW 3.5 mph - N/A   Clear
12:35 AM 79.7 °F - 76.1 °F 89% 30.20 in 10.0 mi Calm Calm - N/A   Clear
12:55 AM 78.8 °F - 76.3 °F 92% 30.20 in 10.0 mi Calm Calm - N/A   Clear
1:15 AM 79.2 °F - 69.1 °F 71% 30.22 in 10.0 mi North 18.4 mph 24.2 mph N/A   Scattered Clouds
1:35 AM 77.2 °F - 65.5 °F 67% 30.21 in 10.0 mi NNE 11.5 mph 20.7 mph N/A   Scattered Clouds
1:55 AM 76.3 °F - 64.4 °F 67% 30.20 in 10.0 mi NNE 6.9 mph 16.1 mph N/A   Clear
2:15 AM 75.4 °F - 64.9 °F 70% 30.19 in 10.0 mi North 4.6 mph - N/A   Clear
2:35 AM 75.2 °F - 66.4 °F 74% 30.20 in 10.0 mi Calm Calm - N/A   Clear
2:55 AM 74.3 °F - 67.1 °F 78% 30.18 in 10.0 mi SSW 4.6 mph - N/A   Clear
3:15 AM 73.8 °F - 67.3 °F 80% 30.18 in 10.0 mi SW 4.6 mph - N/A   Clear
3:35 AM 75.0 °F - 66.7 °F 75% 30.19 in 10.0 mi SW 3.5 mph - N/A   Clear
3:55 AM 74.5 °F - 67.5 °F 79% 30.19 in 10.0 mi Calm Calm - N/A   Scattered Clouds
4:15 AM 73.9 °F - 68.0 °F 82% 30.18 in 10.0 mi Calm Calm - N/A   Scattered Clouds
4:35 AM 74.3 °F - 67.1 °F 78% 30.18 in 10.0 mi Calm Calm - N/A   Clear
4:55 AM 72.7 °F - 68.2 °F 86% 30.18 in 10.0 mi Calm Calm - N/A   Clear
5:15 AM 72.0 °F - 68.2 °F 88% 30.18 in 10.0 mi NNW 3.5 mph - N/A   Clear
5:35 AM 72.0 °F - 68.0 °F 87% 30.18 in 10.0 mi Calm Calm - N/A   Clear
5:55 AM 71.8 °F - 68.4 °F 89% 30.19 in 10.0 mi Calm Calm - N/A   Clear
6:15 AM 72.0 °F - 68.5 °F 89% 30.19 in 10.0 mi Calm Calm - N/A   Clear
6:35 AM 72.9 °F - 69.1 °F 88% 30.21 in 10.0 mi South 3.5 mph - N/A   Scattered Clouds
6:55 AM 73.4 °F - 69.6 °F 88% 30.21 in 10.0 mi Calm Calm - N/A   Mostly Cloudy
6:56 AM 73.4 °F - 69.8 °F 88% 30.21 in 10.0 mi Calm Calm - N/A   Mostly Cloudy
7:56 AM 75.2 °F - 69.8 °F 83% 30.22 in 10.0 mi Calm Calm - N/A   Scattered Clouds
8:56 AM 78.8 °F - 71.6 °F 78% 30.23 in 5.0 mi NW 3.5 mph - N/A   Haze
9:56 AM 84.2 °F 90.9 °F 73.4 °F 70% 30.22 in 5.0 mi NNW 4.6 mph - N/A   Haze
10:56 AM 86.0 °F 93.4 °F 73.4 °F 66% 30.21 in 5.0 mi North 4.6 mph - N/A   Haze
11:56 AM 89.6 °F 96.2 °F 71.6 °F 55% 30.21 in 7.0 mi NNE 4.6 mph - N/A   Clear
12:56 PM 89.6 °F 94.7 °F 69.8 °F 52% 30.19 in 7.0 mi NNE 6.9 mph - N/A   Clear
1:56 PM 91.4 °F 98.4 °F 71.6 °F 52% 30.19 in 10.0 mi North 6.9 mph - N/A   Scattered Clouds
2:56 PM 91.4 °F 98.4 °F 71.6 °F 52% 30.16 in 10.0 mi Calm Calm - N/A   Scattered Clouds
3:56 PM 89.6 °F 96.2 °F 71.6 °F 55% 30.15 in 10.0 mi NNE 4.6 mph - N/A   Scattered Clouds
4:56 PM 91.4 °F 98.4 °F 71.6 °F 52% 30.12 in 10.0 mi NNE 5.8 mph - N/A   Clear
5:56 PM 86.0 °F 95.1 °F 75.2 °F 70% 30.11 in 10.0 mi Calm Calm - N/A   Scattered Clouds
6:56 PM 80.6 °F 85.4 °F 73.4 °F 79% 30.12 in 10.0 mi North 4.6 mph - N/A Rain Light Rain
7:56 PM 78.8 °F - 75.2 °F 89% 30.14 in 7.0 mi Calm Calm - N/A   Scattered Clouds
8:56 PM 78.8 °F - 75.2 °F 89% 30.14 in 7.0 mi Calm Calm - N/A   Clear
9:15 PM 77.9 °F - 75.7 °F 93% 30.15 in 7.0 mi Calm Calm - N/A   Clear
9:35 PM 77.4 °F - 75.4 °F 94% 30.15 in 7.0 mi Calm Calm - N/A   Clear
9:55 PM 77.2 °F - 75.4 °F 94% 30.15 in 5.0 mi Calm Calm - N/A   Clear
9:56 PM 78.8 °F - 75.2 °F 89% 30.15 in 5.0 mi Calm Calm - N/A   Clear
10:15 PM 77.4 °F - 75.6 °F 94% 30.16 in 7.0 mi Calm Calm - N/A   Clear
10:35 PM 77.9 °F - 74.7 °F 90% 30.16 in 10.0 mi Calm Calm - N/A   Clear
10:55 PM 76.5 °F - 74.7 °F 94% 30.16 in 5.0 mi Calm Calm - N/A   Clear
11:15 PM 77.0 °F - 75.2 °F 94% 30.16 in 7.0 mi SSW 3.5 mph - N/A   Clear
11:35 PM 77.0 °F - 75.2 °F 94% 30.15 in 7.0 mi Calm Calm - N/A   Clear
11:55 PM 77.0 °F - 75.2 °F 94% 30.15 in 7.0 mi SW 3.5 mph - N/A   Clear